{"data":{"norad_id":60724,"epoch":"2026-05-25T03:50:40.900704Z","epoch_age_seconds":51290,"freshness":"FRESH","line1":"1 60724U 24152E   26145.16019561  .00000607  00000+0  98696-5 0  9995","line2":"2 60724  53.1551  99.4334 0000816  69.1403 290.9702 15.69704418100848","mean_motion":15.69704418,"eccentricity":8.16e-5,"inclination_deg":53.1551,"raan_deg":99.4334,"arg_perigee_deg":69.1403,"mean_anomaly_deg":290.9702,"bstar":9.8696e-6,"rev_number":10084,"period_min":91.737016439996,"perigee_km":359.19291302896,"apogee_km":360.29253499992,"semimajor_km":6737.8797240144,"source":"CELESTRAK","updated_at":"2026-05-25T13:38:19.306754Z"}}